,,Stat6,,Stat2,,Stat8,,Stat9,,Stat10,,Wind1,,Wind1,
time,status,PA1M_AVG,status,PR1M_SUM,status,RH1M_AVG,status,SR1M_AVG,status,TA1M_AVG,status,W1dAve1m,status,W1sAve1m,
2008-11-03, 00:00:00,VALID,918.879,VALID,0,VALID,100,VALID,-0.0679233,VALID,19.5154,VALID,9,VALID,0,
2008-11-03, 00:01:00,VALID,918.869,VALID,0,VALID,100,VALID,-0.118866,VALID,19.5216,VALID,9,VALID,0,
2008-11-03, 00:02:00,VALID,918.854,VALID,0,VALID,100,VALID,-0.0849042,VALID,19.5246,VALID,9,VALID,0,
2008-11-03, 00:03:00,VALID,918.843,VALID,0,VALID,100,VALID,-0.0849042,VALID,19.4989,VALID,9,VALID,0,
2008-11-03, 00:04:00,VALID,918.822,VALID,0,VALID,100,VALID,-0.0339617,VALID,19.4697,VALID,9,VALID,0,
2008-11-03, 00:05:00,VALID,918.802,VALID,0,VALID,100,VALID,-0.0849042,VALID,19.4465,VALID,9,VALID,0,
2008-11-03, 00:06:00,VALID,918.775,VALID,0,VALID,100,VALID,-0.0509425,VALID,19.4475,VALID,9,VALID,0,
2008-11-03, 00:07:00,VALID,918.775,VALID,0,VALID,100,VALID,-0.0849042,VALID,19.4535,VALID,9,VALID,0,
2008-11-03, 00:08:00,VALID,918.746,VALID,0,VALID,100,VALID,-0.0849042,VALID,19.4372,VALID,9,VALID,0,
2008-11-03, 00:09:00,VALID,918.719,VALID,0,VALID,100,VALID,-0.101885,VALID,19.4275,VALID,9,VALID,0,
2008-11-03, 00:10:00,VALID,918.713,VALID,0,VALID,100,VALID,-0.0679233,VALID,19.4315,VALID,9,VALID,0,
2008-11-03, 00:11:00,VALID,918.72,VALID,0,VALID,100,VALID,-0.0509425,VALID,19.4043,VALID,10,VALID,0,
2008-11-03, 00:12:00,VALID,918.72,VALID,0,VALID,100,VALID,-0.0509425,VALID,19.3814,VALID,11,VALID,0,
2008-11-03, 00:13:00,VALID,918.72,VALID,0,VALID,100,VALID,-0.0679233,VALID,19.3719,VALID,13,VALID,0,
2008-11-03, 00:14:00,VALID,918.715,VALID,0,VALID,100,VALID,-0.0849042,VALID,19.3197,VALID,34,VALID,0,
2008-11-03, 00:15:00,VALID,918.707,VALID,0,VALID,100,VALID,-0.101885,VALID,19.295,VALID,32,VALID,0,
2008-11-03, 00:16:00,VALID,918.671,VALID,0,VALID,100,VALID,-0.0849042,VALID,19.295,VALID,13,VALID,0.0012429,
2008-11-03, 00:17:00,VALID,918.648,VALID,0,VALID,100,VALID,-0.101885,VALID,19.3017,VALID,359,VALID,0.19407,
2008-11-03, 00:18:00,VALID,918.628,VALID,0,VALID,100,VALID,-0.0679233,VALID,19.2942,VALID,10,VALID,0.0688244,
2008-11-03, 00:19:00,VALID,918.602,VALID,0,VALID,100,VALID,-0.101885,VALID,19.317,VALID,9,VALID,0,
2008-11-03, 00:20:00,VALID,918.58,VALID,0,VALID,100,VALID,-0.0849042,VALID,19.3304,VALID,13,VALID,0.179324,
2008-11-03, 00:21:00,VALID,918.564,VALID,0,VALID,100,VALID,-0.0849042,VALID,19.3691,VALID,10,VALID,0,
2008-11-03, 00:22:00,VALID,918.575,VALID,0,VALID,100,VALID,-0.0679233,VALID,19.3788,VALID,6,VALID,0,
2008-11-03, 00:23:00,VALID,918.566,VALID,0,VALID,100,VALID,-0.101885,VALID,19.3758,VALID,10,VALID,0,
2008-11-03, 00:24:00,VALID,918.563,VALID,0,VALID,100,VALID,-0.118866,VALID,19.3823,VALID,360,VALID,0,
2008-11-03, 00:25:00,VALID,918.556,VALID,0,VALID,100,VALID,-0.0679233,VALID,19.3694,VALID,25,VALID,0,
2008-11-03, 00:26:00,VALID,918.557,VALID,0,VALID,100,VALID,-0.0849042,VALID,19.3364,VALID,48,VALID,0.107701,
2008-11-03, 00:27:00,VALID,918.563,VALID,0,VALID,100,VALID,-0.0509425,VALID,19.3332,VALID,49,VALID,0,
2008-11-03, 00:28:00,VALID,918.568,VALID,0,VALID,100,VALID,-0.0849042,VALID,19.3362,VALID,41,VALID,0,
2008-11-03, 00:29:00,VALID,918.559,VALID,0,VALID,100,VALID,-0.0849042,VALID,19.3102,VALID,22,VALID,0,
2008-11-03, 00:30:00,VALID,918.537,VALID,0,VALID,100,VALID,-0.0509425,VALID,19.3037,VALID,21,VALID,0,
2008-11-03, 00:31:00,VALID,918.534,VALID,0,VALID,100,VALID,-0.0509425,VALID,19.3105,VALID,21,VALID,0,
2008-11-03, 00:32:00,VALID,918.541,VALID,0,VALID,100,VALID,-0.0849042,VALID,19.3394,VALID,20,VALID,0,
2008-11-03, 00:33:00,VALID,918.527,VALID,0,VALID,100,VALID,-0.0679233,VALID,19.3294,VALID,20,VALID,0,
2008-11-03, 00:34:00,VALID,918.509,VALID,0,VALID,100,VALID,-0.0849042,VALID,19.3264,VALID,21,VALID,0.0792683,
2008-11-03, 00:35:00,VALID,918.513,VALID,0,VALID,100,VALID,-0.0849042,VALID,19.3237,VALID,30,VALID,0,
2008-11-03, 00:36:00,VALID,918.506,VALID,0,VALID,100,VALID,-0.118866,VALID,19.3012,VALID,23,VALID,0,
2008-11-03, 00:37:00,VALID,918.529,VALID,0,VALID,100,VALID,-0.101885,VALID,19.2885,VALID,21,VALID,0,
2008-11-03, 00:38:00,VALID,918.517,VALID,0,VALID,100,VALID,-0.0679233,VALID,19.2818,VALID,12,VALID,0,
2008-11-03, 00:39:00,VALID,918.525,VALID,0,VALID,100,VALID,-0.0849042,VALID,19.2748,VALID,2,VALID,0.0463299,
2008-11-03, 00:40:00,VALID,918.531,VALID,0,VALID,100,VALID,-0.0849042,VALID,19.281,VALID,21,VALID,0.0148983,
2008-11-03, 00:41:00,VALID,918.536,VALID,0,VALID,100,VALID,-0.0509425,VALID,19.2743,VALID,5,VALID,0.0963542,
2008-11-03, 00:42:00,VALID,918.538,VALID,0,VALID,100,VALID,-0.101885,VALID,19.2518,VALID,324,VALID,0.036044,
2008-11-03, 00:43:00,VALID,918.526,VALID,0,VALID,100,VALID,-0.101885,VALID,19.2456,VALID,327,VALID,0.00426136,
2008-11-03, 00:44:00,VALID,918.514,VALID,0,VALID,100,VALID,-0.0679233,VALID,19.2616,VALID,324,VALID,0,
2008-11-03, 00:45:00,VALID,918.515,VALID,0,VALID,100,VALID,-0.0849042,VALID,19.265,VALID,325,VALID,0,
2008-11-03, 00:46:00,VALID,918.489,VALID,0,VALID,100,VALID,-0.0509425,VALID,19.2613,VALID,331,VALID,0,
2008-11-03, 00:47:00,VALID,918.465,VALID,0,VALID,100,VALID,-0.101885,VALID,19.2521,VALID,19,VALID,0,
2008-11-03, 00:48:00,VALID,918.468,VALID,0,VALID,100,VALID,-0.0849042,VALID,19.2616,VALID,30,VALID,0,
2008-11-03, 00:49:00,VALID,918.458,VALID,0,VALID,100,VALID,-0.0509425,VALID,19.2738,VALID,30,VALID,0,
2008-11-03, 00:50:00,VALID,918.44,VALID,0,VALID,100,VALID,0,VALID,19.2701,VALID,30,VALID,0,
2008-11-03, 00:51:00,VALID,918.431,VALID,0,VALID,100,VALID,0.0169808,VALID,19.2509,VALID,30,VALID,0,
2008-11-03, 00:52:00,VALID,918.439,VALID,0,VALID,100,VALID,0,VALID,19.2569,VALID,30,VALID,0,
2008-11-03, 00:53:00,VALID,918.445,VALID,0,VALID,100,VALID,0.0339617,VALID,19.2599,VALID,25,VALID,0,
2008-11-03, 00:54:00,VALID,918.445,VALID,0,VALID,100,VALID,0.0509425,VALID,19.2733,VALID,279,VALID,0,
2008-11-03, 00:55:00,VALID,918.423,VALID,0,VALID,100,VALID,0.0509425,VALID,19.2955,VALID,275,VALID,0,
2008-11-03, 00:56:00,VALID,918.418,VALID,0,VALID,100,VALID,0.0169808,VALID,19.3092,VALID,275,VALID,0,
2008-11-03, 00:57:00,VALID,918.422,VALID,0,VALID,100,VALID,0.0509425,VALID,19.2993,VALID,275,VALID,0,
2008-11-03, 00:58:00,VALID,918.415,VALID,0,VALID,100,VALID,0.0169808,VALID,19.2606,VALID,275,VALID,0,
2008-11-03, 00:59:00,VALID,918.43,VALID,0,VALID,100,VALID,0.0169808,VALID,19.2149,VALID,275,VALID,0,
2008-11-03, 01:00:00,VALID,918.427,VALID,0,VALID,100,VALID,0,VALID,19.1792,VALID,354,VALID,0,
2008-11-03, 01:01:00,VALID,918.41,VALID,0,VALID,100,VALID,0.0169808,VALID,19.1658,VALID,55,VALID,0,
2008-11-03, 01:02:00,VALID,918.409,VALID,0,VALID,100,VALID,0,VALID,19.1822,VALID,57,VALID,0.0203488,
2008-11-03, 01:03:00,VALID,918.387,VALID,0,VALID,100,VALID,0.0169808,VALID,19.1887,VALID,34,VALID,0.0607244,
2008-11-03, 01:04:00,VALID,918.381,VALID,0,VALID,100,VALID,-0.0169808,VALID,19.1925,VALID,31,VALID,0,
2008-11-03, 01:05:00,VALID,918.364,VALID,0,VALID,100,VALID,-0.0679233,VALID,19.1997,VALID,31,VALID,0,
2008-11-03, 01:06:00,VALID,918.345,VALID,0,VALID,100,VALID,-0.101885,VALID,19.2229,VALID,31,VALID,0,
2008-11-03, 01:07:00,VALID,918.313,VALID,0,VALID,100,VALID,-0.0679233,VALID,19.2029,VALID,31,VALID,0,
2008-11-03, 01:08:00,VALID,918.295,VALID,0,VALID,100,VALID,-0.0679233,VALID,19.1967,VALID,38,VALID,0,
2008-11-03, 01:09:00,VALID,918.28,VALID,0,VALID,100,VALID,-0.0849042,VALID,19.2002,VALID,42,VALID,0,
2008-11-03, 01:10:00,VALID,918.255,VALID,0,VALID,100,VALID,-0.101885,VALID,19.2036,VALID,42,VALID,0,
2008-11-03, 01:11:00,VALID,918.253,VALID,0,VALID,100,VALID,-0.101885,VALID,19.1932,VALID,42,VALID,0,
2008-11-03, 01:12:00,VALID,918.237,VALID,0,VALID,100,VALID,-0.101885,VALID,19.2097,VALID,15,VALID,0,
2008-11-03, 01:13:00,VALID,918.215,VALID,0,VALID,100,VALID,-0.0679233,VALID,19.2131,VALID,324,VALID,0,
2008-11-03, 01:14:00,VALID,918.212,VALID,0,VALID,100,VALID,-0.101885,VALID,19.2134,VALID,330,VALID,0,
2008-11-03, 01:15:00,VALID,918.206,VALID,0,VALID,100,VALID,-0.0849042,VALID,19.2134,VALID,329,VALID,0,
2008-11-03, 01:16:00,VALID,918.203,VALID,0,VALID,100,VALID,-0.101885,VALID,19.2266,VALID,329,VALID,0,
2008-11-03, 01:17:00,VALID,918.203,VALID,0,VALID,100,VALID,-0.0849042,VALID,19.2356,VALID,329,VALID,0,
2008-11-03, 01:18:00,VALID,918.203,VALID,0,VALID,100,VALID,-0.0849042,VALID,19.2616,VALID,329,VALID,0,
2008-11-03, 01:19:00,VALID,918.196,VALID,0,VALID,100,VALID,-0.101885,VALID,19.2583,VALID,329,VALID,0,
2008-11-03, 01:20:00,VALID,918.196,VALID,0,VALID,100,VALID,-0.0849042,VALID,19.2583,VALID,329,VALID,0,
2008-11-03, 01:21:00,VALID,918.166,VALID,0,VALID,100,VALID,-0.101885,VALID,19.2483,VALID,329,VALID,0,
2008-11-03, 01:22:00,VALID,918.163,VALID,0,VALID,100,VALID,-0.0849042,VALID,19.2386,VALID,329,VALID,0,
2008-11-03, 01:23:00,VALID,918.146,VALID,0,VALID,100,VALID,-0.101885,VALID,19.2069,VALID,329,VALID,0,
2008-11-03, 01:24:00,VALID,918.118,VALID,0,VALID,100,VALID,-0.118866,VALID,19.1969,VALID,329,VALID,0,
2008-11-03, 01:25:00,VALID,918.087,VALID,0,VALID,100,VALID,-0.118866,VALID,19.2036,VALID,329,VALID,0,
2008-11-03, 01:26:00,VALID,918.077,VALID,0,VALID,100,VALID,-0.0849042,VALID,19.1969,VALID,329,VALID,0,
2008-11-03, 01:27:00,VALID,918.064,VALID,0,VALID,100,VALID,-0.118866,VALID,19.1872,VALID,329,VALID,0,
2008-11-03, 01:28:00,VALID,918.056,VALID,0,VALID,100,VALID,-0.0849042,VALID,19.1802,VALID,329,VALID,0,
2008-11-03, 01:29:00,VALID,918.046,VALID,0,VALID,100,VALID,-0.101885,VALID,19.1969,VALID,329,VALID,0,
2008-11-03, 01:30:00,VALID,918.04,VALID,0,VALID,100,VALID,-0.101885,VALID,19.1737,VALID,329,VALID,0,
2008-11-03, 01:31:00,VALID,918.026,VALID,0,VALID,100,VALID,-0.0849042,VALID,19.1837,VALID,329,VALID,0,
2008-11-03, 01:32:00,VALID,918.02,VALID,0,VALID,100,VALID,-0.0509425,VALID,19.1867,VALID,329,VALID,0,
2008-11-03, 01:33:00,VALID,918.009,VALID,0,VALID,100,VALID,-0.0509425,VALID,19.2032,VALID,329,VALID,0,
2008-11-03, 01:34:00,VALID,918.002,VALID,0,VALID,100,VALID,-0.101885,VALID,19.2029,VALID,329,VALID,0,
2008-11-03, 01:35:00,VALID,917.989,VALID,0,VALID,100,VALID,-0.0849042,VALID,19.1997,VALID,329,VALID,0,
2008-11-03, 01:36:00,VALID,917.973,VALID,0,VALID,100,VALID,-0.0849042,VALID,19.1899,VALID,329,VALID,0,
2008-11-03, 01:37:00,VALID,917.965,VALID,0,VALID,100,VALID,-0.0509425,VALID,19.1899,VALID,329,VALID,0,
2008-11-03, 01:38:00,VALID,917.954,VALID,0,VALID,100,VALID,-0.0679233,VALID,19.1902,VALID,329,VALID,0,
2008-11-03, 01:39:00,VALID,917.96,VALID,0,VALID,100,VALID,-0.101885,VALID,19.177,VALID,328,VALID,0,
2008-11-03, 01:40:00,VALID,917.935,VALID,0,VALID,100,VALID,-0.0849042,VALID,19.1742,VALID,328,VALID,0,
2008-11-03, 01:41:00,VALID,917.931,VALID,0,VALID,100,VALID,-0.101885,VALID,19.1577,VALID,328,VALID,0,
2008-11-03, 01:42:00,VALID,917.941,VALID,0,VALID,100,VALID,-0.101885,VALID,19.1612,VALID,328,VALID,0,
2008-11-03, 01:43:00,VALID,917.943,VALID,0,VALID,100,VALID,-0.0849042,VALID,19.158,VALID,328,VALID,0,
2008-11-03, 01:44:00,VALID,917.941,VALID,0,VALID,100,VALID,-0.0849042,VALID,19.145,VALID,328,VALID,0,
2008-11-03, 01:45:00,VALID,917.95,VALID,0,VALID,100,VALID,-0.118866,VALID,19.1318,VALID,328,VALID,0,
2008-11-03, 01:46:00,VALID,917.946,VALID,0,VALID,100,VALID,-0.101885,VALID,19.1028,VALID,332,VALID,0,
2008-11-03, 01:47:00,VALID,917.947,VALID,0,VALID,100,VALID,-0.0849042,VALID,19.0996,VALID,333,VALID,0,
2008-11-03, 01:48:00,VALID,917.935,VALID,0,VALID,100,VALID,-0.0849042,VALID,19.0996,VALID,333,VALID,0,
2008-11-03, 01:49:00,VALID,917.93,VALID,0,VALID,100,VALID,-0.0849042,VALID,19.0829,VALID,333,VALID,0,
2008-11-03, 01:50:00,VALID,917.933,VALID,0,VALID,100,VALID,-0.0849042,VALID,19.0769,VALID,333,VALID,0,
2008-11-03, 01:51:00,VALID,917.933,VALID,0,VALID,100,VALID,-0.0849042,VALID,19.0796,VALID,333,VALID,0,
2008-11-03, 01:52:00,VALID,917.926,VALID,0,VALID,100,VALID,-0.0679233,VALID,19.0896,VALID,333,VALID,0,
2008-11-03, 01:53:00,VALID,917.934,VALID,0,VALID,100,VALID,-0.118866,VALID,19.0732,VALID,333,VALID,0,
2008-11-03, 01:54:00,VALID,917.936,VALID,0,VALID,100,VALID,-0.0679233,VALID,19.0764,VALID,333,VALID,0,
2008-11-03, 01:55:00,VALID,917.951,VALID,0,VALID,100,VALID,-0.101885,VALID,19.0864,VALID,333,VALID,0,
2008-11-03, 01:56:00,VALID,917.96,VALID,0,VALID,100,VALID,-0.101885,VALID,19.0929,VALID,333,VALID,0,
2008-11-03, 01:57:00,VALID,917.981,VALID,0,VALID,100,VALID,-0.101885,VALID,19.1031,VALID,333,VALID,0,
2008-11-03, 01:58:00,VALID,917.994,VALID,0,VALID,100,VALID,-0.101885,VALID,19.1258,VALID,333,VALID,0,
2008-11-03, 01:59:00,VALID,917.996,VALID,0,VALID,100,VALID,-0.101885,VALID,19.1121,VALID,333,VALID,0,
2008-11-03, 02:00:00,VALID,917.998,VALID,0,VALID,100,VALID,-0.101885,VALID,19.1091,VALID,333,VALID,0,
2008-11-03, 02:01:00,VALID,918.001,VALID,0,VALID,100,VALID,-0.101885,VALID,19.0864,VALID,333,VALID,0,
2008-11-03, 02:02:00,VALID,917.994,VALID,0,VALID,100,VALID,-0.101885,VALID,19.0766,VALID,333,VALID,0,
2008-11-03, 02:03:00,VALID,917.989,VALID,0,VALID,100,VALID,-0.101885,VALID,19.0569,VALID,334,VALID,0,
2008-11-03, 02:04:00,VALID,917.987,VALID,0,VALID,100,VALID,-0.0849042,VALID,19.035,VALID,343,VALID,0,
2008-11-03, 02:05:00,VALID,917.971,VALID,0,VALID,100,VALID,-0.118866,VALID,19.0088,VALID,350,VALID,0,
2008-11-03, 02:06:00,VALID,917.966,VALID,0,VALID,100,VALID,-0.135847,VALID,18.9826,VALID,7,VALID,0.482143,
2008-11-03, 02:07:00,VALID,917.957,VALID,0,VALID,100,VALID,-0.101885,VALID,18.9726,VALID,5,VALID,0.00533537,
2008-11-03, 02:08:00,VALID,917.955,VALID,0,VALID,100,VALID,-0.101885,VALID,18.9726,VALID,7,VALID,0.00292969,
2008-11-03, 02:09:00,VALID,917.934,VALID,0,VALID,100,VALID,-0.101885,VALID,18.9661,VALID,354,VALID,0.105035,
2008-11-03, 02:10:00,VALID,917.922,VALID,0,VALID,100,VALID,-0.0679233,VALID,18.9694,VALID,2,VALID,0,
2008-11-03, 02:11:00,VALID,917.905,VALID,0,VALID,100,VALID,-0.101885,VALID,18.9631,VALID,17,VALID,0,
2008-11-03, 02:12:00,VALID,917.904,VALID,0,VALID,100,VALID,-0.0849042,VALID,18.9631,VALID,12,VALID,0,
2008-11-03, 02:13:00,VALID,917.904,VALID,0,VALID,100,VALID,-0.101885,VALID,18.9596,VALID,4,VALID,0.0187137,
2008-11-03, 02:14:00,VALID,917.9,VALID,0,VALID,100,VALID,-0.101885,VALID,18.9601,VALID,10,VALID,0.157158,
2008-11-03, 02:15:00,VALID,917.911,VALID,0,VALID,100,VALID,-0.101885,VALID,18.9566,VALID,19,VALID,0.00254755,
2008-11-03, 02:16:00,VALID,917.916,VALID,0,VALID,100,VALID,-0.0849042,VALID,18.9434,VALID,25,VALID,0.186942,
2008-11-03, 02:17:00,VALID,917.913,VALID,0,VALID,100,VALID,-0.0849042,VALID,18.9531,VALID,12,VALID,0.00260417,
2008-11-03, 02:18:00,VALID,917.921,VALID,0,VALID,100,VALID,-0.101885,VALID,18.9534,VALID,10,VALID,0.0451172,
2008-11-03, 02:19:00,VALID,917.929,VALID,0,VALID,100,VALID,-0.0509425,VALID,18.9402,VALID,352,VALID,0.0523256,
2008-11-03, 02:20:00,VALID,917.921,VALID,0,VALID,100,VALID,-0.101885,VALID,18.9501,VALID,355,VALID,0,
2008-11-03, 02:21:00,VALID,917.934,VALID,0,VALID,100,VALID,-0.101885,VALID,18.9666,VALID,16,VALID,0,
2008-11-03, 02:22:00,VALID,917.939,VALID,0,VALID,100,VALID,-0.101885,VALID,18.9466,VALID,16,VALID,0,
2008-11-03, 02:23:00,VALID,917.947,VALID,0,VALID,100,VALID,-0.0849042,VALID,18.9566,VALID,21,VALID,0,
2008-11-03, 02:24:00,VALID,917.951,VALID,0,VALID,100,VALID,-0.101885,VALID,18.9633,VALID,17,VALID,0,
2008-11-03, 02:25:00,VALID,917.945,VALID,0,VALID,100,VALID,-0.101885,VALID,18.9661,VALID,18,VALID,0,
2008-11-03, 02:26:00,VALID,917.942,VALID,0,VALID,100,VALID,-0.0849042,VALID,18.9694,VALID,17,VALID,0,
2008-11-03, 02:27:00,VALID,917.948,VALID,0,VALID,100,VALID,-0.135847,VALID,18.9761,VALID,21,VALID,0,
2008-11-03, 02:28:00,VALID,917.941,VALID,0,VALID,100,VALID,-0.118866,VALID,18.9861,VALID,24,VALID,0,
2008-11-03, 02:29:00,VALID,917.958,VALID,0,VALID,100,VALID,-0.118866,VALID,18.9761,VALID,34,VALID,0,
2008-11-03, 02:30:00,VALID,917.953,VALID,0,VALID,100,VALID,-0.101885,VALID,18.9823,VALID,21,VALID,0,
2008-11-03, 02:31:00,VALID,917.975,VALID,0,VALID,100,VALID,-0.101885,VALID,18.9826,VALID,359,VALID,0,
2008-11-03, 02:32:00,VALID,917.995,VALID,0,VALID,100,VALID,-0.0849042,VALID,18.9955,VALID,327,VALID,0.285823,
2008-11-03, 02:33:00,VALID,917.974,VALID,0,VALID,100,VALID,-0.0849042,VALID,19.005,VALID,349,VALID,0.219866,
2008-11-03, 02:34:00,VALID,917.982,VALID,0,VALID,100,VALID,-0.0849042,VALID,19.0085,VALID,21,VALID,0.00247713,
2008-11-03, 02:35:00,VALID,917.986,VALID,0,VALID,100,VALID,-0.0849042,VALID,18.9988,VALID,359,VALID,0.0875355,
2008-11-03, 02:36:00,VALID,918.001,VALID,0,VALID,100,VALID,-0.0849042,VALID,18.9986,VALID,347,VALID,0.00533537,
2008-11-03, 02:37:00,VALID,918.004,VALID,0,VALID,100,VALID,-0.0849042,VALID,19.0183,VALID,347,VALID,0,
2008-11-03, 02:38:00,VALID,917.997,VALID,0,VALID,100,VALID,-0.0679233,VALID,19.021,VALID,347,VALID,0,
2008-11-03, 02:39:00,VALID,917.998,VALID,0,VALID,100,VALID,-0.118866,VALID,19.0277,VALID,347,VALID,0,
2008-11-03, 02:40:00,VALID,917.983,VALID,0,VALID,100,VALID,-0.0849042,VALID,19.0243,VALID,3,VALID,0.432106,
2008-11-03, 02:41:00,VALID,917.985,VALID,0,VALID,100,VALID,-0.101885,VALID,19.0018,VALID,13,VALID,0.819196,
2008-11-03, 02:42:00,VALID,917.992,VALID,0,VALID,100,VALID,-0.101885,VALID,19.0085,VALID,16,VALID,1.4282,
2008-11-03, 02:43:00,VALID,917.999,VALID,0,VALID,100,VALID,-0.101885,VALID,19.0213,VALID,12,VALID,0.0207031,
2008-11-03, 02:44:00,VALID,918.002,VALID,0,VALID,100,VALID,-0.101885,VALID,19.031,VALID,9,VALID,0,
2008-11-03, 02:45:00,VALID,918.008,VALID,0,VALID,100,VALID,-0.0849042,VALID,19.0375,VALID,338,VALID,0.126116,
2008-11-03, 02:46:00,VALID,918.006,VALID,0,VALID,100,VALID,-0.0679233,VALID,19.0599,VALID,340,VALID,0,
2008-11-03, 02:47:00,VALID,918.007,VALID,0,VALID,100,VALID,-0.0849042,VALID,19.0727,VALID,340,VALID,0,
2008-11-03, 02:48:00,VALID,917.996,VALID,0,VALID,100,VALID,-0.0849042,VALID,19.1091,VALID,65,VALID,0.0595486,
2008-11-03, 02:49:00,VALID,918.038,VALID,0,VALID,100,VALID,-0.0679233,VALID,19.1251,VALID,8,VALID,0,
2008-11-03, 02:50:00,VALID,918.058,VALID,0,VALID,100,VALID,-0.118866,VALID,19.135,VALID,305,VALID,0,
2008-11-03, 02:51:00,VALID,918.05,VALID,0,VALID,100,VALID,-0.0849042,VALID,19.1283,VALID,24,VALID,0.339208,
2008-11-03, 02:52:00,VALID,918.002,VALID,0,VALID,100,VALID,-0.101885,VALID,19.1153,VALID,28,VALID,0.984184,
2008-11-03, 02:53:00,VALID,917.991,VALID,0,VALID,100,VALID,-0.101885,VALID,19.1255,VALID,35,VALID,1.08289,
2008-11-03, 02:54:00,VALID,918,VALID,0,VALID,100,VALID,-0.101885,VALID,19.1418,VALID,36,VALID,1.14208,
2008-11-03, 02:55:00,VALID,918.004,VALID,0,VALID,100,VALID,-0.101885,VALID,19.2004,VALID,17,VALID,0.921303,
2008-11-03, 02:56:00,VALID,918.001,VALID,0,VALID,100,VALID,-0.101885,VALID,19.2396,VALID,2,VALID,0.9373,
2008-11-03, 02:57:00,VALID,917.987,VALID,0,VALID,100,VALID,-0.101885,VALID,19.2488,VALID,354,VALID,0.956032,
2008-11-03, 02:58:00,VALID,917.99,VALID,0,VALID,100,VALID,-0.118866,VALID,19.2745,VALID,1,VALID,0.612393,
2008-11-03, 02:59:00,VALID,917.968,VALID,0,VALID,100,VALID,-0.101885,VALID,19.2945,VALID,352,VALID,0.441778,
2008-11-03, 03:00:00,VALID,917.95,VALID,0,VALID,99.9865,VALID,-0.101885,VALID,19.308,VALID,9,VALID,0.324505,
2008-11-03, 03:01:00,VALID,917.931,VALID,0,VALID,99.7332,VALID,-0.118866,VALID,19.3334,VALID,19,VALID,0.623728,
2008-11-03, 03:02:00,VALID,917.941,VALID,0,VALID,99.5832,VALID,-0.118866,VALID,19.3724,VALID,25,VALID,0.0655488,
2008-11-03, 03:03:00,VALID,917.914,VALID,0,VALID,99.5387,VALID,-0.0849042,VALID,19.3814,VALID,20,VALID,0.410417,
2008-11-03, 03:04:00,VALID,917.918,VALID,0,VALID,99.6468,VALID,-0.0509425,VALID,19.3816,VALID,22,VALID,0,
2008-11-03, 03:05:00,VALID,917.919,VALID,0,VALID,99.6735,VALID,0,VALID,19.3741,VALID,339,VALID,0.00114329,
2008-11-03, 03:06:00,VALID,917.921,VALID,0,VALID,99.7332,VALID,0,VALID,19.3614,VALID,343,VALID,0,
2008-11-03, 03:07:00,VALID,917.897,VALID,0,VALID,99.7663,VALID,-0.0169808,VALID,19.3449,VALID,12,VALID,0.460751,
2008-11-03, 03:08:00,VALID,917.893,VALID,0,VALID,99.7777,VALID,0,VALID,19.3065,VALID,20,VALID,0.637326,
2008-11-03, 03:09:00,VALID,917.878,VALID,0,VALID,99.9364,VALID,0,VALID,19.2738,VALID,17,VALID,0.0690104,
2008-11-03, 03:10:00,VALID,917.889,VALID,0,VALID,100,VALID,0,VALID,19.2441,VALID,356,VALID,0.0325521,
2008-11-03, 03:11:00,VALID,917.884,VALID,0,VALID,100,VALID,0,VALID,19.2214,VALID,331,VALID,0.119186,
2008-11-03, 03:12:00,VALID,917.879,VALID,0,VALID,100,VALID,0.0169808,VALID,19.2247,VALID,325,VALID,0,
2008-11-03, 03:13:00,VALID,917.876,VALID,0,VALID,100,VALID,0,VALID,19.2212,VALID,322,VALID,0,
2008-11-03, 03:14:00,VALID,917.872,VALID,0,VALID,100,VALID,-0.0169808,VALID,19.205,VALID,353,VALID,0,
2008-11-03, 03:15:00,VALID,917.879,VALID,0,VALID,100,VALID,-0.0339617,VALID,19.1952,VALID,9,VALID,0,
2008-11-03, 03:16:00,VALID,917.89,VALID,0,VALID,100,VALID,0.0169808,VALID,19.1985,VALID,9,VALID,0,
2008-11-03, 03:17:00,VALID,917.882,VALID,0,VALID,100,VALID,0,VALID,19.1887,VALID,10,VALID,0,
2008-11-03, 03:18:00,VALID,917.885,VALID,0,VALID,100,VALID,0,VALID,19.1658,VALID,13,VALID,0,
2008-11-03, 03:19:00,VALID,917.863,VALID,0,VALID,100,VALID,0.0509425,VALID,19.1368,VALID,21,VALID,0.0476372,
2008-11-03, 03:20:00,VALID,917.842,VALID,0,VALID,100,VALID,0,VALID,19.1271,VALID,22,VALID,0,
2008-11-03, 03:21:00,VALID,917.82,VALID,0,VALID,100,VALID,0.0509425,VALID,19.1271,VALID,19,VALID,0,
2008-11-03, 03:22:00,VALID,917.801,VALID,0,VALID,100,VALID,0,VALID,19.1204,VALID,11,VALID,0,
2008-11-03, 03:23:00,VALID,917.797,VALID,0,VALID,100,VALID,0.0509425,VALID,19.1331,VALID,9,VALID,0,
2008-11-03, 03:24:00,VALID,917.784,VALID,0,VALID,100,VALID,0.0169808,VALID,19.1398,VALID,9,VALID,0,
2008-11-03, 03:25:00,VALID,917.771,VALID,0,VALID,100,VALID,0,VALID,19.1528,VALID,9,VALID,0,
2008-11-03, 03:26:00,VALID,917.764,VALID,0,VALID,100,VALID,0,VALID,19.1496,VALID,9,VALID,0,
2008-11-03, 03:27:00,VALID,917.752,VALID,0,VALID,100,VALID,0,VALID,19.1568,VALID,1,VALID,0,
2008-11-03, 03:28:00,VALID,917.732,VALID,0,VALID,100,VALID,-0.0169808,VALID,19.153,VALID,3,VALID,0,
2008-11-03, 03:29:00,VALID,917.724,VALID,0,VALID,100,VALID,0,VALID,19.183,VALID,9,VALID,0,
2008-11-03, 03:30:00,VALID,917.704,VALID,0,VALID,100,VALID,0,VALID,19.2054,VALID,17,VALID,0,
2008-11-03, 03:31:00,VALID,917.694,VALID,0,VALID,100,VALID,0,VALID,19.2054,VALID,28,VALID,0,
2008-11-03, 03:32:00,VALID,917.687,VALID,0,VALID,100,VALID,-0.0339617,VALID,19.2024,VALID,32,VALID,0,
2008-11-03, 03:33:00,VALID,917.671,VALID,0,VALID,100,VALID,0,VALID,19.1892,VALID,29,VALID,0,
2008-11-03, 03:34:00,VALID,917.673,VALID,0,VALID,100,VALID,-0.0169808,VALID,19.1735,VALID,24,VALID,0,
2008-11-03, 03:35:00,VALID,917.677,VALID,0,VALID,100,VALID,-0.0169808,VALID,19.1371,VALID,19,VALID,0,
2008-11-03, 03:36:00,VALID,917.678,VALID,0,VALID,100,VALID,-0.0169808,VALID,19.1373,VALID,19,VALID,0.275724,
2008-11-03, 03:37:00,VALID,917.689,VALID,0,VALID,100,VALID,0,VALID,19.1403,VALID,14,VALID,0.277876,
2008-11-03, 03:38:00,VALID,917.674,VALID,0,VALID,100,VALID,0,VALID,19.1468,VALID,18,VALID,0.212358,
2008-11-03, 03:39:00,VALID,917.662,VALID,0,VALID,100,VALID,0,VALID,19.1401,VALID,17,VALID,0,
2008-11-03, 03:40:00,VALID,917.663,VALID,0,VALID,100,VALID,-0.0169808,VALID,19.1403,VALID,9,VALID,0.138951,
2008-11-03, 03:41:00,VALID,917.644,VALID,0,VALID,100,VALID,0,VALID,19.1438,VALID,7,VALID,0.0485102,
2008-11-03, 03:42:00,VALID,917.644,VALID,0,VALID,100,VALID,-0.0169808,VALID,19.147,VALID,12,VALID,0.478646,
2008-11-03, 03:43:00,VALID,917.64,VALID,0,VALID,99.9967,VALID,0,VALID,19.1503,VALID,18,VALID,0.244474,
2008-11-03, 03:44:00,VALID,917.637,VALID,0,VALID,99.9921,VALID,-0.0169808,VALID,19.1336,VALID,13,VALID,0.245276,
2008-11-03, 03:45:00,VALID,917.643,VALID,0,VALID,100,VALID,-0.0169808,VALID,19.1368,VALID,9,VALID,0.276708,
2008-11-03, 03:46:00,VALID,917.627,VALID,0,VALID,100,VALID,0,VALID,19.1341,VALID,15,VALID,0.119048,
2008-11-03, 03:47:00,VALID,917.617,VALID,0,VALID,100,VALID,0,VALID,19.1209,VALID,21,VALID,0,
2008-11-03, 03:48:00,VALID,917.614,VALID,0,VALID,100,VALID,-0.0169808,VALID,19.1106,VALID,16,VALID,0.146289,